Regional Weather Roundup
Issued by NWS

Home | Current Version | Previous Version | Graphics & Text | Print | Product List | Glossary On
Versions: 1 2 3 4 5 6 7 8 9 10 11 12 13 14 15 16 17 18 19 20 21 22 23 24 25 26 27 28 29 30 31 32 33 34 35 36 37 38 39 40 41 42 43 44 45 46 47 48 49 50
000
ASUS43 KTOP 211208
RWRKS

WEATHER ROUNDUP FOR KANSAS
NATIONAL WEATHER SERVICE GOODLAND KS
700 AM CDT FRI JUL 21 2017

NOTE:  "FAIR" INDICATES FEW OR NO CLOUDS BELOW 12,000 FEET WITH NO
SIGNIFICANT WEATHER AND/OR OBSTRUCTIONS TO VISIBILITY.

KSZ001>006-013>018-027>032-041>047-211300-
NORTHWEST KANSAS

CITY           SKY/WX    TMP DP  RH WIND       PRES   REMARKS
GOODLAND       CLEAR     68  58  70 W8        29.96R
6HR MIN TEMP:  67; 6HR MAX TEMP:  83;

HAYS           CLEAR     76  63  64 S5        29.91S
HILL CITY      CLEAR     78  60  53 S12       29.88S
6HR MIN TEMP:  77; 6HR MAX TEMP:  84;

RUSSELL        CLEAR     78  64  61 S16       29.89S
6HR MIN TEMP:  78; 6HR MAX TEMP:  83;

$$

KSZ061>065-074>080-084>089-211300-
SOUTHWEST KANSAS

CITY           SKY/WX    TMP DP  RH WIND       PRES   REMARKS
DODGE CITY     CLEAR     75  61  61 S13       29.95F
6HR MIN TEMP:  75; 6HR MAX TEMP:  83;

ELKHART          N/A     69  45  42 S10         N/A
GARDEN CITY    CLEAR     70  58  65 S7        29.96R
6HR MIN TEMP:  70; 6HR MAX TEMP:  79;

LIBERAL        CLEAR     68  58  70 S9        29.99S
PRATT          CLEAR     73  62  68 S10       29.95S
6HR MIN TEMP:  73; 6HR MAX TEMP:  80;

$$

KSZ066>073-081>083-090>101-211300-
SOUTHEAST KANSAS

CITY           SKY/WX    TMP DP  RH WIND       PRES   REMARKS
CHANUTE        CLEAR     79  72  79 MISG      29.99R
6HR MIN TEMP:  78; 6HR MAX TEMP:  83;

COFFEYVILLE    CLEAR     77  74  90 S5        29.99R
6HR MIN TEMP:  76; 6HR MAX TEMP:  80;

HUTCHINSON     CLEAR     81  65  58 S12       29.93S
6HR MIN TEMP:  81; 6HR MAX TEMP:  85;

MEDICINE LODGE   N/A     78  64  61 SE7       29.95S
NEWTON         CLEAR     79  68  69 S13       29.96S
PARSONS        CLEAR     77  73  87 S7        30.00R
6HR MIN TEMP:  77; 6HR MAX TEMP:  81;

WICHITA INTL   PTCLDY    76  70  82 S7        29.95S
6HR MIN TEMP:  75; 6HR MAX TEMP:  86;

WICHITA JABRA  CLEAR     78  69  73 S8        29.95F
6HR MIN TEMP:  77; 6HR MAX TEMP:  84;

WICHITA MCCONL CLEAR     77  68  73 S8        29.96S
WINFIELD       CLEAR     76  69  79 S9        29.98S
6HR MIN TEMP:  75; 6HR MAX TEMP:  84;

$$

KSZ007>012-019>026-033>040-048>060-102>105-211300-
NORTHEAST KANSAS

CITY           SKY/WX    TMP DP  RH WIND       PRES   REMARKS
CONCORDIA      CLEAR     81  66  60 S16       29.89S
6HR MIN TEMP:  80; 6HR MAX TEMP:  84;

EMPORIA        CLEAR     76  70  82 S12       29.95R
6HR MIN TEMP:  76; 6HR MAX TEMP:  82;

LAWRENCE       CLEAR     80  73  79 SE5       29.94R
6HR MIN TEMP:  77; 6HR MAX TEMP:  84;

MANHATTAN      CLEAR     80  70  71 SW10      29.91R
6HR MIN TEMP:  80; 6HR MAX TEMP:  87;

MARYSVILLE     PTCLDY    81  70  69 S8        29.89F
OLATHE IND     CLEAR     79  72  79 S10       29.97R
6HR MIN TEMP:  78; 6HR MAX TEMP:  81;

OLATHE EXE     CLEAR     76  73  91 S5        29.97R
6HR MIN TEMP:  76; 6HR MAX TEMP:  81;

SALINA         CLEAR     82  66  58 S12       29.90F
6HR MIN TEMP:  81; 6HR MAX TEMP:  89;

TOPEKA BILLARD CLEAR     80  73  79 CALM      29.93R
6HR MIN TEMP:  79; 6HR MAX TEMP:  84;

TOPEKA FORBES  CLEAR     79  73  82 S9        29.93S
6HR MIN TEMP:  79; 6HR MAX TEMP:  84;

$$




USA.gov is the U.S. government's official web portal to all federal, state and local government web resources and services.